Location: Unspecified
(0.0000°N, 0.0000°E)
Time: 00:48:09
(UTC+00:00)

ISS - Visible Passes

Search period start: 19 April 2019 00:00
Search period end: 29 April 2019 00:00
Orbit: 408 x 410 km, 51.6° (Epoch: 19 April)

Date Brightness Start Highest point End Pass type
(mag) Time Alt. Az. Time Alt. Az. Time Alt. Az.
20 Apr -3.2 05:10:49 10° SSW 05:14:04 57° SE 05:17:18 10° NE visible
21 Apr -1.6 04:22:42 20° SE 04:23:21 21° SE 04:25:56 10° ENE visible
22 Apr -2.7 05:07:43 21° W 05:08:58 27° NW 05:11:50 10° N visible
23 Apr -2.0 04:19:48 28° NNE 04:19:48 28° NNE 04:21:31 10° NNE visible
